| time (UTC) | temp F | wind direction | speed knots | gust knots | rain 1hr in | rain 24hr in | rain mn in | humidity % | barometer mb |
| 20260902204504 | 92 | 244 | 0.0 | 0.0 | 0.00 | 0.00 | 0.00 | 65 | 1013.7 |
| 20260902203004 | 92 | 244 | 0.0 | 0.0 | 0.00 | 0.00 | 0.00 | 61 | 1013.7 |
| 20260902201504 | 94 | 63 | 0.0 | 1.7 | 0.00 | 0.00 | 0.00 | 60 | 1013.7 |
| 20260902194504 | 95 | 252 | 0.9 | 2.6 | 0.00 | 0.00 | 0.00 | 60 | 1014.0 |
| 20260902193004 | 94 | 252 | 0.9 | 5.2 | 0.00 | 0.00 | 0.00 | 57 | 1014.3 |
| 20260902190004 | 92 | 242 | 0.0 | 1.7 | 0.00 | 0.00 | 0.00 | 65 | 1014.5 |
| 20260902184504 | 92 | 82 | 0.0 | 1.7 | 0.00 | 0.00 | 0.00 | 64 | 1014.7 |
| 20260902181504 | 92 | 89 | 0.9 | 2.6 | 0.00 | 0.00 | 0.00 | 63 | 1014.8 |
| 20260902180006 | 93 | 118 | 0.0 | 7.8 | 0.00 | 0.00 | 0.00 | 63 | 1015.0 |
| 20260902174504 | 93 | 214 | 0.9 | 5.2 | 0.00 | 0.00 | 0.00 | 65 | 1015.2 |
| 20260902173004 | 92 | 144 | 0.0 | 2.6 | 0.00 | 0.00 | 0.00 | 67 | 1015.3 |
| 20260902170004 | 92 | 147 | 0.0 | 1.7 | 0.00 | 0.00 | 0.00 | 67 | 1015.5 |
| 20260902164504 | 91 | 208 | 0.0 | 1.7 | 0.00 | 0.00 | 0.00 | 67 | 1015.6 |
| 20260902163004 | 91 | 87 | 0.0 | 2.6 | 0.00 | 0.00 | 0.00 | 68 | 1015.7 |
| 20260902161504 | 90 | 248 | 0.0 | 1.7 | 0.00 | 0.00 | 0.00 | 71 | 1015.8 |
| 20260902160006 | 89 | 243 | 0.0 | 1.7 | 0.00 | 0.00 | 0.00 | 71 | 1015.9 |
| 20260902154504 | 88 | 130 | 0.0 | 1.7 | 0.00 | 0.00 | 0.00 | 74 | 1015.9 |
| 20260902153003 | 87 | 47 | 0.0 | 0.0 | 0.00 | 0.00 | 0.00 | 75 | 1016.0 |
| 20260902150004 | 85 | 101 | 0.0 | 1.7 | 0.00 | 0.00 | 0.00 | 77 | 1016.1 |
| 20260902144504 | 84 | 115 | 0.0 | 0.9 | 0.00 | 0.00 | 0.00 | 78 | 1016.1 |
| 20260902143004 | 83 | 82 | 0.0 | 0.9 | 0.00 | 0.00 | 0.00 | 79 | 1016.1 |
| 20260902140004 | 80 | 184 | 0.0 | 0.9 | 0.00 | 0.00 | 0.00 | 84 | 1016.0 |
| 20260902134503 | 78 | 134 | 0.0 | 1.7 | 0.00 | 0.00 | 0.00 | 88 | 1016.0 |
| 20260902133004 | 77 | 134 | 0.0 | 0.0 | 0.00 | 0.00 | 0.00 | 91 | 1016.0 |
| 20260902131503 | 75 | 133 | 0.0 | 0.0 | 0.00 | 0.00 | 0.00 | 94 | 1016.0 |
| 20260902124504 | 74 | 133 | 0.0 | 0.0 | 0.00 | 0.00 | 0.00 | 95 | 1016.1 |
| 20260902121504 | 72 | 123 | 0.0 | 0.0 | 0.00 | 0.00 | 0.00 | 95 | 1015.8 |
| 20260902120004 | 72 | 123 | 0.0 | 0.0 | 0.00 | 0.00 | 0.00 | 94 | 1015.8 |
| 20260902114504 | 72 | 123 | 0.0 | 0.0 | 0.00 | 0.00 | 0.00 | 94 | 1015.6 |
| 20260902113004 | 72 | 123 | 0.0 | 0.0 | 0.00 | 0.00 | 0.00 | 94 | 1015.4 |
| 20260902111504 | 72 | 123 | 0.0 | 0.0 | 0.00 | 0.00 | 0.00 | 94 | 1015.3 |
| 20260902110007 | 72 | 123 | 0.0 | 0.0 | 0.00 | 0.00 | 0.00 | 93 | 1015.3 |
| 20260902104504 | 72 | 123 | 0.0 | 0.0 | 0.00 | 0.00 | 0.00 | 93 | 1015.4 |
| 20260902103004 | 72 | 123 | 0.0 | 0.0 | 0.00 | 0.00 | 0.00 | 93 | 1015.3 |
| 20260902101504 | 72 | 123 | 0.0 | 0.0 | 0.00 | 0.00 | 0.00 | 93 | 1015.2 |
| 20260902100004 | 72 | 123 | 0.0 | 0.0 | 0.00 | 0.00 | 0.00 | 93 | 1015.1 |
| 20260902094504 | 72 | 123 | 0.0 | 0.0 | 0.00 | 0.00 | 0.00 | 93 | 1015.1 |
| 20260902091504 | 72 | 123 | 0.0 | 0.0 | 0.00 | 0.00 | 0.00 | 93 | 1015.1 |
| 20260902090005 | 72 | 123 | 0.0 | 0.0 | 0.00 | 0.00 | 0.00 | 93 | 1014.9 |
| 20260902084504 | 72 | 123 | 0.0 | 0.0 | 0.00 | 0.00 | 0.00 | 92 | 1014.9 |
| 20260902081504 | 73 | 123 | 0.0 | 0.0 | 0.00 | 0.00 | 0.00 | 92 | 1014.7 |
| 20260902080004 | 73 | 123 | 0.0 | 0.0 | 0.00 | 0.00 | 0.00 | 92 | 1014.5 |
| 20260902074504 | 73 | 123 | 0.0 | 0.0 | 0.00 | 0.00 | 0.00 | 92 | 1014.5 |
| 20260902073004 | 73 | 123 | 0.0 | 0.0 | 0.00 | 0.00 | 0.00 | 92 | 1014.6 |
| 20260902071504 | 73 | 123 | 0.0 | 0.0 | 0.00 | 0.00 | 0.00 | 92 | 1014.5 |
| 20260902070006 | 73 | 123 | 0.0 | 0.0 | 0.00 | 0.00 | 0.00 | 91 | 1014.6 |
| 20260902064503 | 74 | 123 | 0.0 | 0.0 | 0.00 | 0.00 | 0.00 | 91 | 1014.6 |
| 20260902063004 | 74 | 123 | 0.0 | 0.0 | 0.00 | 0.00 | 0.00 | 91 | 1014.5 |
| 20260902060024 | 74 | 123 | 0.0 | 0.0 | 0.00 | 0.00 | 0.00 | 90 | 1014.5 |
| 20260902054504 | 74 | 123 | 0.0 | 0.0 | 0.00 | 0.00 | 0.00 | 90 | 1014.5 |
| 20260902053004 | 74 | 123 | 0.0 | 0.0 | 0.00 | 0.00 | 0.00 | 90 | 1014.5 |
| 20260902051504 | 74 | 123 | 0.0 | 0.0 | 0.00 | 0.00 | 0.00 | 90 | 1014.5 |
| 20260902050007 | 75 | 123 | 0.0 | 0.0 | 0.00 | 0.00 | 0.00 | 89 | 1014.5 |
| 20260902044504 | 75 | 123 | 0.0 | 0.0 | 0.00 | 0.00 | 0.00 | 89 | 1014.5 |
| 20260902043004 | 75 | 123 | 0.0 | 0.0 | 0.00 | 0.00 | 0.00 | 89 | 1014.5 |
| 20260902041505 | 75 | 123 | 0.0 | 0.0 | 0.00 | 0.00 | 0.00 | 89 | 1014.6 |
| 20260902040004 | 75 | 123 | 0.0 | 0.0 | 0.00 | 0.00 | 0.00 | 89 | 1014.6 |
| 20260902034504 | 76 | 123 | 0.0 | 0.0 | 0.00 | 0.00 | 0.00 | 88 | 1014.6 |
| 20260902033004 | 76 | 123 | 0.0 | 0.0 | 0.00 | 0.00 | 0.00 | 88 | 1014.6 |
| 20260902031503 | 76 | 123 | 0.0 | 0.0 | 0.00 | 0.00 | 0.00 | 87 | 1014.6 |
| 20260902030004 | 76 | 123 | 0.0 | 0.0 | 0.00 | 0.00 | 0.00 | 87 | 1014.6 |
| 20260902024503 | 76 | 123 | 0.0 | 0.0 | 0.00 | 0.00 | 0.00 | 87 | 1014.6 |
| 20260902023004 | 77 | 123 | 0.0 | 0.0 | 0.00 | 0.00 | 0.00 | 86 | 1014.5 |
| 20260902021504 | 77 | 123 | 0.0 | 0.0 | 0.00 | 0.00 | 0.00 | 85 | 1014.5 |
| 20260902020004 | 78 | 123 | 0.0 | 0.0 | 0.00 | 0.00 | 0.00 | 85 | 1014.4 |
| 20260902014503 | 78 | 123 | 0.0 | 0.0 | 0.00 | 0.00 | 0.00 | 85 | 1014.3 |
| 20260902013004 | 78 | 121 | 0.0 | 0.0 | 0.00 | 0.00 | 0.00 | 84 | 1014.3 |
| 20260902011504 | 79 | 121 | 0.0 | 0.0 | 0.00 | 0.00 | 0.00 | 85 | 1014.1 |
| 20260902004504 | 80 | 121 | 0.0 | 0.0 | 0.00 | 0.00 | 0.00 | 83 | 1013.9 |
| 20260902003004 | 81 | 121 | 0.0 | 0.0 | 0.00 | 0.00 | 0.00 | 80 | 1014.0 |
| 20260901233004 | 85 | 121 | 0.0 | 0.0 | 0.00 | 0.00 | 0.00 | 75 | 1014.2 |
| 20260901231504 | 86 | 121 | 0.0 | 0.0 | 0.00 | 0.00 | 0.00 | 74 | 1014.2 |
| 20260901230004 | 87 | 121 | 0.0 | 0.0 | 0.00 | 0.00 | 0.00 | 73 | 1014.2 |
| 20260901223005 | 89 | 121 | 0.0 | 0.0 | 0.00 | 0.00 | 0.00 | 69 | 1014.2 |
| 20260901221504 | 89 | 147 | 0.0 | 1.7 | 0.00 | 0.00 | 0.00 | 67 | 1014.2 |
| 20260901220004 | 90 | 72 | 0.0 | 1.7 | 0.00 | 0.00 | 0.00 | 67 | 1014.2 |
| 20260901214504 | 90 | 55 | 0.0 | 0.0 | 0.00 | 0.00 | 0.00 | 66 | 1014.1 |
| 20260901211504 | 91 | 79 | 0.0 | 1.7 | 0.00 | 0.00 | 0.00 | 64 | 1014.1 |